Year,Month,Day,Hour,Minute,Value (Times are PST for temperature in C)
2013,10,21,00,00,6.80
2013,10,21,00,01,6.80
2013,10,21,00,02,6.80
2013,10,21,00,03,6.80
2013,10,21,00,04,6.80
2013,10,21,00,05,6.80
2013,10,21,00,06,6.80
2013,10,21,00,07,6.80
2013,10,21,00,08,6.80
2013,10,21,00,09,6.80
2013,10,21,00,10,6.80
2013,10,21,00,11,6.80
2013,10,21,00,12,6.80
2013,10,21,00,13,6.80
2013,10,21,00,14,6.80
2013,10,21,00,15,6.80
2013,10,21,00,16,6.80
2013,10,21,00,17,6.70
2013,10,21,00,18,6.70
2013,10,21,00,19,6.70
2013,10,21,00,20,6.70
2013,10,21,00,21,6.70
2013,10,21,00,22,6.70
2013,10,21,00,23,6.70
2013,10,21,00,24,6.70
2013,10,21,00,25,6.70
2013,10,21,00,26,6.70
2013,10,21,00,27,6.70
2013,10,21,00,28,6.70
2013,10,21,00,29,6.70
2013,10,21,00,30,6.70
2013,10,21,00,31,6.70
2013,10,21,00,32,6.70
2013,10,21,00,33,6.60
2013,10,21,00,34,6.60
2013,10,21,00,35,6.60
2013,10,21,00,36,6.60
2013,10,21,00,37,6.60
2013,10,21,00,38,6.60
2013,10,21,00,39,6.60
2013,10,21,00,40,6.60
2013,10,21,00,41,6.60
2013,10,21,00,42,6.60
2013,10,21,00,43,6.60
2013,10,21,00,44,6.60
2013,10,21,00,45,6.60
2013,10,21,00,46,6.60
2013,10,21,00,47,6.60
2013,10,21,00,48,6.60
2013,10,21,00,49,6.60
2013,10,21,00,50,6.60
2013,10,21,00,51,6.60
2013,10,21,00,52,6.60
2013,10,21,00,53,6.60
2013,10,21,00,54,6.60
2013,10,21,00,55,6.60
2013,10,21,00,56,6.60
2013,10,21,00,57,6.60
2013,10,21,00,58,6.60
2013,10,21,00,59,6.50
2013,10,21,01,00,6.50
2013,10,21,01,01,6.50
2013,10,21,01,02,6.50
2013,10,21,01,03,6.50
2013,10,21,01,04,6.50
2013,10,21,01,05,6.50
2013,10,21,01,06,6.40
2013,10,21,01,07,6.40
2013,10,21,01,08,6.40
2013,10,21,01,09,6.40
2013,10,21,01,10,6.40
2013,10,21,01,11,6.40
2013,10,21,01,12,6.40
2013,10,21,01,13,6.40
2013,10,21,01,14,6.40
2013,10,21,01,15,6.40
2013,10,21,01,16,6.40
2013,10,21,01,17,6.50
2013,10,21,01,18,6.50
2013,10,21,01,19,6.40
2013,10,21,01,20,6.40
2013,10,21,01,21,6.40
2013,10,21,01,22,6.40
2013,10,21,01,23,6.40
2013,10,21,01,24,6.40
2013,10,21,01,25,6.40
2013,10,21,01,26,6.40
2013,10,21,01,27,6.40
2013,10,21,01,28,6.40
2013,10,21,01,29,6.40
2013,10,21,01,30,6.40
2013,10,21,01,31,6.40
2013,10,21,01,32,6.40
2013,10,21,01,33,6.40
2013,10,21,01,34,6.40
2013,10,21,01,35,6.40
2013,10,21,01,36,6.40
2013,10,21,01,37,6.40
2013,10,21,01,38,6.40
2013,10,21,01,39,6.40
2013,10,21,01,40,6.40
2013,10,21,01,41,6.40
2013,10,21,01,42,6.40
2013,10,21,01,43,6.40
2013,10,21,01,44,6.40
2013,10,21,01,45,6.40
2013,10,21,01,46,6.40
2013,10,21,01,47,6.40
2013,10,21,01,48,6.40
2013,10,21,01,49,6.40
2013,10,21,01,50,6.40
2013,10,21,01,51,6.40
2013,10,21,01,52,6.40
2013,10,21,01,53,6.40
2013,10,21,01,54,6.30
2013,10,21,01,55,6.30
2013,10,21,01,56,6.30
2013,10,21,01,57,6.30
2013,10,21,01,58,6.30
2013,10,21,01,59,6.30
2013,10,21,02,00,6.30
2013,10,21,02,01,6.30
2013,10,21,02,02,6.30
2013,10,21,02,03,6.30
2013,10,21,02,04,6.30
2013,10,21,02,05,6.30
2013,10,21,02,06,6.30
2013,10,21,02,07,6.20
2013,10,21,02,08,6.20
2013,10,21,02,09,6.20
2013,10,21,02,10,6.20
2013,10,21,02,11,6.20
2013,10,21,02,12,6.20
2013,10,21,02,13,6.20
2013,10,21,02,14,6.20
2013,10,21,02,15,6.20
2013,10,21,02,16,6.20
2013,10,21,02,17,6.20
2013,10,21,02,18,6.20
2013,10,21,02,19,6.20
2013,10,21,02,20,6.20
2013,10,21,02,21,6.20
2013,10,21,02,22,6.10
2013,10,21,02,23,6.10
2013,10,21,02,24,6.10
2013,10,21,02,25,6.10
2013,10,21,02,26,6.10
2013,10,21,02,27,6.00
2013,10,21,02,28,6.00
2013,10,21,02,29,5.90
2013,10,21,02,30,5.90
2013,10,21,02,31,5.90
2013,10,21,02,32,5.90
2013,10,21,02,33,5.90
2013,10,21,02,34,5.90
2013,10,21,02,35,5.90
2013,10,21,02,36,5.90
2013,10,21,02,37,5.90
2013,10,21,02,38,5.80
2013,10,21,02,39,5.80
2013,10,21,02,40,5.80
2013,10,21,02,41,5.80
2013,10,21,02,42,5.80
2013,10,21,02,43,5.80
2013,10,21,02,44,5.80
2013,10,21,02,45,5.80
2013,10,21,02,46,5.80
2013,10,21,02,47,5.80
2013,10,21,02,48,5.80
2013,10,21,02,49,5.80
2013,10,21,02,50,5.80
2013,10,21,02,51,5.80
2013,10,21,02,52,5.80
2013,10,21,02,53,5.80
2013,10,21,02,54,5.80
2013,10,21,02,55,5.80
2013,10,21,02,56,5.80
2013,10,21,02,57,5.80
2013,10,21,02,58,5.80
2013,10,21,02,59,5.80
2013,10,21,03,00,5.80
2013,10,21,03,01,5.80
2013,10,21,03,02,5.80
2013,10,21,03,03,5.80
2013,10,21,03,04,5.70
2013,10,21,03,05,5.70
2013,10,21,03,06,5.70
2013,10,21,03,07,5.70
2013,10,21,03,08,5.60
2013,10,21,03,09,5.60
2013,10,21,03,10,5.60
2013,10,21,03,11,5.60
2013,10,21,03,12,5.60
2013,10,21,03,13,5.60
2013,10,21,03,14,5.60
2013,10,21,03,15,5.60
2013,10,21,03,16,5.60
2013,10,21,03,17,5.60
2013,10,21,03,18,5.60
2013,10,21,03,19,5.60
2013,10,21,03,20,5.60
2013,10,21,03,21,5.60
2013,10,21,03,22,5.60
2013,10,21,03,23,5.60
2013,10,21,03,24,5.60
2013,10,21,03,25,5.60
2013,10,21,03,26,5.60
2013,10,21,03,27,5.60
2013,10,21,03,28,5.60
2013,10,21,03,29,5.60
2013,10,21,03,30,5.60
2013,10,21,03,31,5.60
2013,10,21,03,32,5.60
2013,10,21,03,33,5.60
2013,10,21,03,34,5.60
2013,10,21,03,35,5.60
2013,10,21,03,36,5.60
2013,10,21,03,37,5.60
2013,10,21,03,38,5.60
2013,10,21,03,39,5.70
2013,10,21,03,40,5.70
2013,10,21,03,41,5.70
2013,10,21,03,42,5.70
2013,10,21,03,43,5.70
2013,10,21,03,44,5.70
2013,10,21,03,45,5.70
2013,10,21,03,46,5.70
2013,10,21,03,47,5.70
2013,10,21,03,48,5.70
2013,10,21,03,49,5.80
2013,10,21,03,50,5.70
2013,10,21,03,51,5.80
2013,10,21,03,52,5.80
2013,10,21,03,53,5.80
2013,10,21,03,54,5.80
2013,10,21,03,55,5.80
2013,10,21,03,56,5.70
2013,10,21,03,57,5.70
2013,10,21,03,58,5.70
2013,10,21,03,59,5.70
2013,10,21,04,00,5.70
2013,10,21,04,01,5.70
2013,10,21,04,02,5.70
2013,10,21,04,03,5.70
2013,10,21,04,04,5.70
2013,10,21,04,05,5.70
2013,10,21,04,06,5.70
2013,10,21,04,07,5.70
2013,10,21,04,08,5.70
2013,10,21,04,09,5.70
2013,10,21,04,10,5.70
2013,10,21,04,11,5.70
2013,10,21,04,12,5.70
2013,10,21,04,13,5.70
2013,10,21,04,14,5.70
2013,10,21,04,15,5.70
2013,10,21,04,16,5.70
2013,10,21,04,17,5.70
2013,10,21,04,18,5.70
2013,10,21,04,19,5.70
2013,10,21,04,20,5.70
2013,10,21,04,21,5.70
2013,10,21,04,22,5.70
2013,10,21,04,23,5.70
2013,10,21,04,24,5.70
2013,10,21,04,25,5.70
2013,10,21,04,26,5.70
2013,10,21,04,27,5.70
2013,10,21,04,28,5.60
2013,10,21,04,29,5.60
2013,10,21,04,30,5.60
2013,10,21,04,31,5.60
2013,10,21,04,32,5.60
2013,10,21,04,33,5.60
2013,10,21,04,34,5.60
2013,10,21,04,35,5.60
2013,10,21,04,36,5.60
2013,10,21,04,37,5.60
2013,10,21,04,38,5.60
2013,10,21,04,39,5.60
2013,10,21,04,40,5.60
2013,10,21,04,41,5.60
2013,10,21,04,42,5.60
2013,10,21,04,43,5.60
2013,10,21,04,44,5.60
2013,10,21,04,45,5.60
2013,10,21,04,46,5.60
2013,10,21,04,47,5.60
2013,10,21,04,48,5.60
2013,10,21,04,49,5.60
2013,10,21,04,50,5.60
2013,10,21,04,51,5.60
2013,10,21,04,52,5.60
2013,10,21,04,53,5.60
2013,10,21,04,54,5.60
2013,10,21,04,55,5.60
2013,10,21,04,56,5.60
2013,10,21,04,57,5.60
2013,10,21,04,58,5.60
2013,10,21,04,59,5.60
2013,10,21,05,00,5.60
2013,10,21,05,01,5.60
2013,10,21,05,02,5.60
2013,10,21,05,03,5.60
2013,10,21,05,04,5.60
2013,10,21,05,05,5.60
2013,10,21,05,06,5.60
2013,10,21,05,07,5.60
2013,10,21,05,08,5.60
2013,10,21,05,09,5.60
2013,10,21,05,10,5.60
2013,10,21,05,11,5.60
2013,10,21,05,12,5.60
2013,10,21,05,13,5.60
2013,10,21,05,14,5.60
2013,10,21,05,15,5.60
2013,10,21,05,16,5.60
2013,10,21,05,17,5.60
2013,10,21,05,18,5.60
2013,10,21,05,19,5.60
2013,10,21,05,20,5.60
2013,10,21,05,21,5.60
2013,10,21,05,22,5.60
2013,10,21,05,23,5.60
2013,10,21,05,24,5.60
2013,10,21,05,25,5.60
2013,10,21,05,26,5.60
2013,10,21,05,27,5.60
2013,10,21,05,28,5.60
2013,10,21,05,29,5.60
2013,10,21,05,30,5.60
2013,10,21,05,31,5.60
2013,10,21,05,32,5.60
2013,10,21,05,33,5.60
2013,10,21,05,34,5.50
2013,10,21,05,35,5.50
2013,10,21,05,36,5.50
2013,10,21,05,37,5.50
2013,10,21,05,38,5.50
2013,10,21,05,39,5.50
2013,10,21,05,40,5.50
2013,10,21,05,41,5.50
2013,10,21,05,42,5.50
2013,10,21,05,43,5.50
2013,10,21,05,44,5.50
2013,10,21,05,45,5.50
2013,10,21,05,46,5.50
2013,10,21,05,47,5.50
2013,10,21,05,48,5.50
2013,10,21,05,49,5.50
2013,10,21,05,50,5.50
2013,10,21,05,51,5.50
2013,10,21,05,52,5.50
2013,10,21,05,53,5.50
2013,10,21,05,54,5.50
2013,10,21,05,55,5.50
2013,10,21,05,56,5.50
2013,10,21,05,57,5.50
2013,10,21,05,58,5.50
2013,10,21,05,59,5.50
2013,10,21,06,00,5.50
2013,10,21,06,01,5.40
2013,10,21,06,02,5.40
2013,10,21,06,03,5.40
2013,10,21,06,04,5.40
2013,10,21,06,05,5.40
2013,10,21,06,06,5.40
2013,10,21,06,07,5.40
2013,10,21,06,08,5.30
2013,10,21,06,09,5.30
2013,10,21,06,10,5.30
2013,10,21,06,11,5.30
2013,10,21,06,12,5.20
2013,10,21,06,13,5.20
2013,10,21,06,14,5.20
2013,10,21,06,15,5.20
2013,10,21,06,16,5.20
2013,10,21,06,17,5.20
2013,10,21,06,18,5.20
2013,10,21,06,19,5.20
2013,10,21,06,20,5.20
2013,10,21,06,21,5.20
2013,10,21,06,22,5.20
2013,10,21,06,23,5.20
2013,10,21,06,24,5.20
2013,10,21,06,25,5.10
2013,10,21,06,26,5.10
2013,10,21,06,27,5.10
2013,10,21,06,28,5.10
2013,10,21,06,29,5.10
2013,10,21,06,30,5.10
2013,10,21,06,31,5.10
2013,10,21,06,32,5.10
2013,10,21,06,33,5.10
2013,10,21,06,34,5.10
2013,10,21,06,35,5.10
2013,10,21,06,36,5.10
2013,10,21,06,37,5.10
2013,10,21,06,38,5.00
2013,10,21,06,39,5.00
2013,10,21,06,40,5.00
2013,10,21,06,41,5.00
2013,10,21,06,42,4.90
2013,10,21,06,43,4.90
2013,10,21,06,44,4.90
2013,10,21,06,45,4.90
2013,10,21,06,46,4.90
2013,10,21,06,47,4.90
2013,10,21,06,48,4.90
2013,10,21,06,49,4.80
2013,10,21,06,50,4.80
2013,10,21,06,51,4.80
2013,10,21,06,52,4.80
2013,10,21,06,53,4.80
2013,10,21,06,54,4.80
2013,10,21,06,55,4.80
2013,10,21,06,56,4.80
2013,10,21,06,57,4.80
2013,10,21,06,58,4.80
2013,10,21,06,59,4.80
2013,10,21,07,00,4.80
2013,10,21,07,01,4.80
2013,10,21,07,02,4.80
2013,10,21,07,03,4.80
2013,10,21,07,04,4.80
2013,10,21,07,05,4.80
2013,10,21,07,06,4.80
2013,10,21,07,07,4.80
2013,10,21,07,08,4.80
2013,10,21,07,09,4.70
2013,10,21,07,10,4.70
2013,10,21,07,11,4.70
2013,10,21,07,12,4.70
2013,10,21,07,13,4.70
2013,10,21,07,14,4.70
2013,10,21,07,15,4.70
2013,10,21,07,16,4.70
2013,10,21,07,17,4.70
2013,10,21,07,18,4.70
2013,10,21,07,19,4.70
2013,10,21,07,20,4.70
2013,10,21,07,21,4.70
2013,10,21,07,22,4.70
2013,10,21,07,23,4.70
2013,10,21,07,24,4.70
2013,10,21,07,25,4.70
2013,10,21,07,26,4.70
2013,10,21,07,27,4.70
2013,10,21,07,28,4.70
2013,10,21,07,29,4.70
2013,10,21,07,30,4.70
2013,10,21,07,31,4.70
2013,10,21,07,32,4.70
2013,10,21,07,33,4.70
2013,10,21,07,34,4.70
2013,10,21,07,35,4.70
2013,10,21,07,36,4.70
2013,10,21,07,37,4.70
2013,10,21,07,38,4.70
2013,10,21,07,39,4.70
2013,10,21,07,40,4.70
2013,10,21,07,41,4.70
2013,10,21,07,42,4.70
2013,10,21,07,43,4.70
2013,10,21,07,44,4.70
2013,10,21,07,45,4.70
2013,10,21,07,46,4.70
2013,10,21,07,47,4.70
2013,10,21,07,48,4.70
2013,10,21,07,49,4.70
2013,10,21,07,50,4.70
2013,10,21,07,51,4.70
2013,10,21,07,52,4.70
2013,10,21,07,53,4.70
2013,10,21,07,54,4.70
2013,10,21,07,55,4.60
2013,10,21,07,56,4.60
2013,10,21,07,57,4.60
2013,10,21,07,58,4.60
2013,10,21,07,59,4.60
2013,10,21,08,00,4.60
2013,10,21,08,01,4.60
2013,10,21,08,02,4.60
2013,10,21,08,03,4.50
2013,10,21,08,04,4.50
2013,10,21,08,05,4.50
2013,10,21,08,06,4.50
2013,10,21,08,07,4.50
2013,10,21,08,08,4.50
2013,10,21,08,09,4.50
2013,10,21,08,10,4.50
2013,10,21,08,11,4.50
2013,10,21,08,12,4.50
2013,10,21,08,13,4.50
2013,10,21,08,14,4.50
2013,10,21,08,15,4.50
2013,10,21,08,16,4.50
2013,10,21,08,17,4.50
2013,10,21,08,18,4.50
2013,10,21,08,19,4.60
2013,10,21,08,20,4.50
2013,10,21,08,21,4.50
2013,10,21,08,22,4.50
2013,10,21,08,23,4.50
2013,10,21,08,24,4.40
2013,10,21,08,25,4.40
2013,10,21,08,26,4.40
2013,10,21,08,27,4.40
2013,10,21,08,28,4.40
2013,10,21,08,29,4.40
2013,10,21,08,30,4.40
2013,10,21,08,31,4.40
2013,10,21,08,32,4.40
2013,10,21,08,33,4.40
2013,10,21,08,34,4.30
2013,10,21,08,35,4.30
2013,10,21,08,36,4.30
2013,10,21,08,37,4.30
2013,10,21,08,38,4.40
2013,10,21,08,39,4.40
2013,10,21,08,40,4.40
2013,10,21,08,41,4.40
2013,10,21,08,42,4.40
2013,10,21,08,43,4.40
2013,10,21,08,44,4.40
2013,10,21,08,45,4.40
2013,10,21,08,46,4.40
2013,10,21,08,47,4.40
2013,10,21,08,48,4.50
2013,10,21,08,49,4.50
2013,10,21,08,50,4.50
2013,10,21,08,51,4.50
2013,10,21,08,52,4.50
2013,10,21,08,53,4.50
2013,10,21,08,54,4.60
2013,10,21,08,55,4.60
2013,10,21,08,56,4.60
2013,10,21,08,57,4.60
2013,10,21,08,58,4.60
2013,10,21,08,59,4.60
2013,10,21,09,00,4.60
2013,10,21,09,01,4.60
2013,10,21,09,02,4.70
2013,10,21,09,03,4.70
2013,10,21,09,04,4.70
2013,10,21,09,05,4.70
2013,10,21,09,06,4.70
2013,10,21,09,07,4.80
2013,10,21,09,08,4.80
2013,10,21,09,09,4.80
2013,10,21,09,10,4.80
2013,10,21,09,11,4.80
2013,10,21,09,12,4.90
2013,10,21,09,13,4.90
2013,10,21,09,14,4.90
2013,10,21,09,15,4.90
2013,10,21,09,16,4.90
2013,10,21,09,17,4.90
2013,10,21,09,18,4.90
2013,10,21,09,19,4.90
2013,10,21,09,20,4.90
2013,10,21,09,21,4.90
2013,10,21,09,22,4.90
2013,10,21,09,23,4.90
2013,10,21,09,24,4.90
2013,10,21,09,25,5.00
2013,10,21,09,26,5.00
2013,10,21,09,27,5.00
2013,10,21,09,28,5.00
2013,10,21,09,29,5.00
2013,10,21,09,30,5.00
2013,10,21,09,31,5.00
2013,10,21,09,32,5.10
2013,10,21,09,33,5.10
2013,10,21,09,34,5.10
2013,10,21,09,35,5.10
2013,10,21,09,36,5.10
2013,10,21,09,37,5.10
2013,10,21,09,38,5.10
2013,10,21,09,39,5.20
2013,10,21,09,40,5.20
2013,10,21,09,41,5.20
2013,10,21,09,42,5.30
2013,10,21,09,43,5.30
2013,10,21,09,44,5.30
2013,10,21,09,45,5.30
2013,10,21,09,46,5.30
2013,10,21,09,47,5.30
2013,10,21,09,48,5.30
2013,10,21,09,49,5.40
2013,10,21,09,50,5.40
2013,10,21,09,51,5.40
2013,10,21,09,52,5.30
2013,10,21,09,53,5.30
2013,10,21,09,54,5.30
2013,10,21,09,55,5.30
2013,10,21,09,56,5.30
2013,10,21,09,57,5.30
2013,10,21,09,58,5.30
2013,10,21,09,59,5.30
2013,10,21,10,00,5.30
2013,10,21,10,01,5.30
2013,10,21,10,02,5.40
2013,10,21,10,03,5.40
2013,10,21,10,04,5.50
2013,10,21,10,05,5.50
2013,10,21,10,06,5.50
2013,10,21,10,07,5.60
2013,10,21,10,08,5.60
2013,10,21,10,09,5.70
2013,10,21,10,10,5.70
2013,10,21,10,11,5.70
2013,10,21,10,12,5.80
2013,10,21,10,13,5.80
2013,10,21,10,14,5.80
2013,10,21,10,15,5.80
2013,10,21,10,16,5.80
2013,10,21,10,17,5.80
2013,10,21,10,18,5.80
2013,10,21,10,19,5.80
2013,10,21,10,20,5.80
2013,10,21,10,21,5.80
2013,10,21,10,22,5.90
2013,10,21,10,23,5.90
2013,10,21,10,24,5.90
2013,10,21,10,25,5.90
2013,10,21,10,26,5.90
2013,10,21,10,27,5.90
2013,10,21,10,28,5.90
2013,10,21,10,29,6.00
2013,10,21,10,30,6.00
2013,10,21,10,31,6.10
2013,10,21,10,32,6.10
2013,10,21,10,33,6.10
2013,10,21,10,34,6.20
2013,10,21,10,35,6.10
2013,10,21,10,36,6.10
2013,10,21,10,37,6.10
2013,10,21,10,38,6.10
2013,10,21,10,39,6.10
2013,10,21,10,40,6.10
2013,10,21,10,41,6.10
2013,10,21,10,42,6.20
2013,10,21,10,43,6.20
2013,10,21,10,44,6.20
2013,10,21,10,45,6.30
2013,10,21,10,46,6.30
2013,10,21,10,47,6.30
2013,10,21,10,48,6.30
2013,10,21,10,49,6.30
2013,10,21,10,50,6.40
2013,10,21,10,51,6.40
2013,10,21,10,52,6.50
2013,10,21,10,53,6.50
2013,10,21,10,54,6.50
2013,10,21,10,55,6.50
2013,10,21,10,56,6.50
2013,10,21,10,57,6.60
2013,10,21,10,58,6.60
2013,10,21,10,59,6.60
2013,10,21,11,00,6.70
2013,10,21,11,01,6.80
2013,10,21,11,02,6.80
2013,10,21,11,03,6.90
2013,10,21,11,04,7.00
2013,10,21,11,05,7.00
2013,10,21,11,06,7.10
2013,10,21,11,07,7.20
2013,10,21,11,08,7.20
2013,10,21,11,09,7.30
2013,10,21,11,10,7.40
2013,10,21,11,11,7.50
2013,10,21,11,12,7.50
2013,10,21,11,13,7.60
2013,10,21,11,14,7.60
2013,10,21,11,15,7.60
2013,10,21,11,16,7.60
2013,10,21,11,17,7.50
2013,10,21,11,18,7.50
2013,10,21,11,19,7.40
2013,10,21,11,20,7.40
2013,10,21,11,21,7.40
2013,10,21,11,22,7.50
2013,10,21,11,23,7.50
2013,10,21,11,24,7.50
2013,10,21,11,25,7.60
2013,10,21,11,26,7.70
2013,10,21,11,27,7.80
2013,10,21,11,28,7.80
2013,10,21,11,29,7.70
2013,10,21,11,30,7.60
2013,10,21,11,31,7.50
2013,10,21,11,32,7.40
2013,10,21,11,33,7.40
2013,10,21,11,34,7.50
2013,10,21,11,35,7.50
2013,10,21,11,36,7.60
2013,10,21,11,37,7.70
2013,10,21,11,38,7.70
2013,10,21,11,39,7.80
2013,10,21,11,40,7.80
2013,10,21,11,41,7.80
2013,10,21,11,42,7.80
2013,10,21,11,43,7.90
2013,10,21,11,44,7.90
2013,10,21,11,45,7.90
2013,10,21,11,46,8.00
2013,10,21,11,47,8.00
2013,10,21,11,48,8.10
2013,10,21,11,49,8.20
2013,10,21,11,50,8.20
2013,10,21,11,51,8.10
2013,10,21,11,52,8.10
2013,10,21,11,53,8.10
2013,10,21,11,54,8.10
2013,10,21,11,55,8.10
2013,10,21,11,56,8.10
2013,10,21,11,57,8.10
2013,10,21,11,58,8.10
2013,10,21,11,59,8.20
2013,10,21,12,00,8.20
2013,10,21,12,01,8.30
2013,10,21,12,02,8.30
2013,10,21,12,03,8.40
2013,10,21,12,04,8.50
2013,10,21,12,05,8.60
2013,10,21,12,06,8.60
2013,10,21,12,07,8.60
2013,10,21,12,08,8.70
2013,10,21,12,09,8.70
2013,10,21,12,10,8.80
2013,10,21,12,11,8.80
2013,10,21,12,12,8.80
2013,10,21,12,13,8.80
2013,10,21,12,14,8.80
2013,10,21,12,15,8.80
2013,10,21,12,16,8.80
2013,10,21,12,17,8.90
2013,10,21,12,18,8.90
2013,10,21,12,19,9.00
2013,10,21,12,20,9.00
2013,10,21,12,21,9.10
2013,10,21,12,22,9.20
2013,10,21,12,23,9.30
2013,10,21,12,24,9.40
2013,10,21,12,25,9.40
2013,10,21,12,26,9.40
2013,10,21,12,27,9.40
2013,10,21,12,28,9.50
2013,10,21,12,29,9.70
2013,10,21,12,30,9.80
2013,10,21,12,31,10.00
2013,10,21,12,32,10.10
2013,10,21,12,33,10.10
2013,10,21,12,34,10.10
2013,10,21,12,35,10.10
2013,10,21,12,36,10.10
2013,10,21,12,37,10.10
2013,10,21,12,38,10.00
2013,10,21,12,39,9.90
2013,10,21,12,40,10.00
2013,10,21,12,41,10.10
2013,10,21,12,42,10.10
2013,10,21,12,43,10.20
2013,10,21,12,44,10.20
2013,10,21,12,45,10.30
2013,10,21,12,46,10.40
2013,10,21,12,47,10.50
2013,10,21,12,48,10.40
2013,10,21,12,49,10.50
2013,10,21,12,50,10.50
2013,10,21,12,51,10.60
2013,10,21,12,52,10.80
2013,10,21,12,53,10.90
2013,10,21,12,54,11.00
2013,10,21,12,55,11.10
2013,10,21,12,56,11.10
2013,10,21,12,57,11.20
2013,10,21,12,58,11.10
2013,10,21,12,59,11.20
2013,10,21,13,00,11.20
2013,10,21,13,01,11.20
2013,10,21,13,02,11.20
2013,10,21,13,03,11.20
2013,10,21,13,04,11.20
2013,10,21,13,05,11.20
2013,10,21,13,06,11.30
2013,10,21,13,07,11.40
2013,10,21,13,08,11.40
2013,10,21,13,09,11.50
2013,10,21,13,10,11.50
2013,10,21,13,11,11.60
2013,10,21,13,12,11.60
2013,10,21,13,13,11.60
2013,10,21,13,14,11.60
2013,10,21,13,15,11.60
2013,10,21,13,16,11.60
2013,10,21,13,17,11.60
2013,10,21,13,18,11.70
2013,10,21,13,19,11.80
2013,10,21,13,20,11.80
2013,10,21,13,21,11.90
2013,10,21,13,22,12.00
2013,10,21,13,23,12.00
2013,10,21,13,24,12.10
2013,10,21,13,25,12.10
2013,10,21,13,26,12.10
2013,10,21,13,27,12.20
2013,10,21,13,28,12.20
2013,10,21,13,29,12.30
2013,10,21,13,30,12.30
2013,10,21,13,31,12.40
2013,10,21,13,32,12.50
2013,10,21,13,33,12.50
2013,10,21,13,34,12.60
2013,10,21,13,35,12.60
2013,10,21,13,36,12.60
2013,10,21,13,37,12.70
2013,10,21,13,38,12.70
2013,10,21,13,39,12.70
2013,10,21,13,40,12.80
2013,10,21,13,41,12.80
2013,10,21,13,42,12.90
2013,10,21,13,43,13.00
2013,10,21,13,44,13.10
2013,10,21,13,45,13.10
2013,10,21,13,46,13.20
2013,10,21,13,47,13.20
2013,10,21,13,48,13.20
2013,10,21,13,49,13.20
2013,10,21,13,50,13.30
2013,10,21,13,51,13.30
2013,10,21,13,52,13.30
2013,10,21,13,53,13.40
2013,10,21,13,54,13.40
2013,10,21,13,55,13.50
2013,10,21,13,56,13.50
2013,10,21,13,57,13.60
2013,10,21,13,58,13.60
2013,10,21,13,59,13.70
2013,10,21,14,00,13.80
2013,10,21,14,01,13.80
2013,10,21,14,02,13.90
2013,10,21,14,03,14.00
2013,10,21,14,04,14.00
2013,10,21,14,05,14.00
2013,10,21,14,06,14.00
2013,10,21,14,07,14.10
2013,10,21,14,08,14.10
2013,10,21,14,09,14.20
2013,10,21,14,10,14.20
2013,10,21,14,11,14.30
2013,10,21,14,12,14.40
2013,10,21,14,13,14.40
2013,10,21,14,14,14.50
2013,10,21,14,15,14.60
2013,10,21,14,16,14.60
2013,10,21,14,17,14.70
2013,10,21,14,18,14.70
2013,10,21,14,19,14.70
2013,10,21,14,20,14.70
2013,10,21,14,21,14.80
2013,10,21,14,22,14.80
2013,10,21,14,23,14.90
2013,10,21,14,24,15.00
2013,10,21,14,25,15.00
2013,10,21,14,26,15.00
2013,10,21,14,27,15.00
2013,10,21,14,28,15.00
2013,10,21,14,29,15.10
2013,10,21,14,30,15.20
2013,10,21,14,31,15.20
2013,10,21,14,32,15.20
2013,10,21,14,33,15.30
2013,10,21,14,34,15.30
2013,10,21,14,35,15.30
2013,10,21,14,36,15.30
2013,10,21,14,37,15.40
2013,10,21,14,38,15.40
2013,10,21,14,39,15.50
2013,10,21,14,40,15.50
2013,10,21,14,41,15.50
2013,10,21,14,42,15.50
2013,10,21,14,43,15.40
2013,10,21,14,44,15.40
2013,10,21,14,45,15.40
2013,10,21,14,46,15.40
2013,10,21,14,47,15.30
2013,10,21,14,48,15.30
2013,10,21,14,49,15.30
2013,10,21,14,50,15.40
2013,10,21,14,51,15.40
2013,10,21,14,52,15.40
2013,10,21,14,53,15.40
2013,10,21,14,54,15.50
2013,10,21,14,55,15.50
2013,10,21,14,56,15.60
2013,10,21,14,57,15.60
2013,10,21,14,58,15.60
2013,10,21,14,59,15.60
2013,10,21,15,00,15.70
2013,10,21,15,01,15.70
2013,10,21,15,02,15.70
2013,10,21,15,03,15.70
2013,10,21,15,04,15.80
2013,10,21,15,05,15.80
2013,10,21,15,06,15.80
2013,10,21,15,07,15.80
2013,10,21,15,08,15.80
2013,10,21,15,09,15.80
2013,10,21,15,10,15.80
2013,10,21,15,11,15.80
2013,10,21,15,12,15.80
2013,10,21,15,13,15.80
2013,10,21,15,14,15.80
2013,10,21,15,15,15.80
2013,10,21,15,16,15.80
2013,10,21,15,17,15.80
2013,10,21,15,18,15.80
2013,10,21,15,19,15.90
2013,10,21,15,20,15.90
2013,10,21,15,21,15.90
2013,10,21,15,22,15.80
2013,10,21,15,23,15.80
2013,10,21,15,24,15.80
2013,10,21,15,25,15.80
2013,10,21,15,26,15.80
2013,10,21,15,27,15.80
2013,10,21,15,28,15.80
2013,10,21,15,29,15.80
2013,10,21,15,30,15.90
2013,10,21,15,31,15.90
2013,10,21,15,32,15.90
2013,10,21,15,33,15.90
2013,10,21,15,34,16.00
2013,10,21,15,35,16.00
2013,10,21,15,36,16.10
2013,10,21,15,37,16.10
2013,10,21,15,38,16.10
2013,10,21,15,39,16.10
2013,10,21,15,40,16.10
2013,10,21,15,41,16.10
2013,10,21,15,42,16.10
2013,10,21,15,43,16.10
2013,10,21,15,44,16.10
2013,10,21,15,45,16.10
2013,10,21,15,46,16.10
2013,10,21,15,47,16.10
2013,10,21,15,48,16.10
2013,10,21,15,49,16.10
2013,10,21,15,50,16.10
2013,10,21,15,51,16.10
2013,10,21,15,52,16.00
2013,10,21,15,53,16.00
2013,10,21,15,54,16.00
2013,10,21,15,55,16.00
2013,10,21,15,56,15.90
2013,10,21,15,57,15.80
2013,10,21,15,58,15.80
2013,10,21,15,59,15.80
2013,10,21,16,00,15.80
2013,10,21,16,01,15.80
2013,10,21,16,02,15.70
2013,10,21,16,03,15.70
2013,10,21,16,04,15.70
2013,10,21,16,05,15.70
2013,10,21,16,06,15.70
2013,10,21,16,07,15.70
2013,10,21,16,08,15.60
2013,10,21,16,09,15.60
2013,10,21,16,10,15.50
2013,10,21,16,11,15.50
2013,10,21,16,12,15.40
2013,10,21,16,13,15.40
2013,10,21,16,14,15.30
2013,10,21,16,15,15.30
2013,10,21,16,16,15.30
2013,10,21,16,17,15.30
2013,10,21,16,18,15.30
2013,10,21,16,19,15.30
2013,10,21,16,20,15.20
2013,10,21,16,21,15.20
2013,10,21,16,22,15.10
2013,10,21,16,23,15.10
2013,10,21,16,24,15.10
2013,10,21,16,25,15.00
2013,10,21,16,26,15.00
2013,10,21,16,27,15.00
2013,10,21,16,28,15.00
2013,10,21,16,29,15.00
2013,10,21,16,30,15.00
2013,10,21,16,31,15.00
2013,10,21,16,32,15.00
2013,10,21,16,33,15.00
2013,10,21,16,34,15.00
2013,10,21,16,35,15.00
2013,10,21,16,36,15.00
2013,10,21,16,37,15.00
2013,10,21,16,38,14.90
2013,10,21,16,39,14.80
2013,10,21,16,40,14.80
2013,10,21,16,41,14.80
2013,10,21,16,42,14.80
2013,10,21,16,43,14.70
2013,10,21,16,44,14.70
2013,10,21,16,45,14.70
2013,10,21,16,46,14.70
2013,10,21,16,47,14.60
2013,10,21,16,48,14.60
2013,10,21,16,49,14.60
2013,10,21,16,50,14.60
2013,10,21,16,51,14.60
2013,10,21,16,52,14.50
2013,10,21,16,53,14.50
2013,10,21,16,54,14.50
2013,10,21,16,55,14.40
2013,10,21,16,56,14.40
2013,10,21,16,57,14.40
2013,10,21,16,58,14.40
2013,10,21,16,59,14.40
2013,10,21,17,00,14.30
2013,10,21,17,01,14.30
2013,10,21,17,02,14.30
2013,10,21,17,03,14.30
2013,10,21,17,04,14.30
2013,10,21,17,05,14.30
2013,10,21,17,06,14.30
2013,10,21,17,07,14.20
2013,10,21,17,08,14.20
2013,10,21,17,09,14.20
2013,10,21,17,10,14.20
2013,10,21,17,11,14.10
2013,10,21,17,12,14.10
2013,10,21,17,13,14.10
2013,10,21,17,14,14.00
2013,10,21,17,15,14.00
2013,10,21,17,16,14.00
2013,10,21,17,17,13.90
2013,10,21,17,18,13.90
2013,10,21,17,19,13.90
2013,10,21,17,20,13.90
2013,10,21,17,21,13.80
2013,10,21,17,22,13.80
2013,10,21,17,23,13.70
2013,10,21,17,24,13.70
2013,10,21,17,25,13.70
2013,10,21,17,26,13.70
2013,10,21,17,27,13.60
2013,10,21,17,28,13.60
2013,10,21,17,29,13.60
2013,10,21,17,30,13.50
2013,10,21,17,31,13.50
2013,10,21,17,32,13.40
2013,10,21,17,33,13.40
2013,10,21,17,34,13.40
2013,10,21,17,35,13.30
2013,10,21,17,36,13.30
2013,10,21,17,37,13.30
2013,10,21,17,38,13.20
2013,10,21,17,39,13.20
2013,10,21,17,40,13.20
2013,10,21,17,41,13.10
2013,10,21,17,42,13.10
2013,10,21,17,43,13.10
2013,10,21,17,44,13.00
2013,10,21,17,45,13.00
2013,10,21,17,46,12.90
2013,10,21,17,47,12.90
2013,10,21,17,48,12.80
2013,10,21,17,49,12.80
2013,10,21,17,50,12.80
2013,10,21,17,51,12.70
2013,10,21,17,52,12.70